Location: Berduj
(43.0019°N, 22.3781°E)
Time: 22:01:43
(UTC+00:00)

Hubble Space Telescope - Visible Passes

Search period start: 15 December 2019 00:00
Search period end: 25 December 2019 00:00
Orbit: 536 x 540 km, 28.5° (Epoch: 14 December)

Date Brightness Start Highest point End Pass type
(mag) Time Alt. Az. Time Alt. Az. Time Alt. Az.
15 Dec 3.8 05:11:00 10° S 05:11:08 10° S 05:11:15 10° S visible
16 Dec 3.6 04:59:35 10° S 05:00:23 10° S 05:01:11 10° SSE visible
17 Dec 3.5 04:48:41 10° SSW 04:49:38 11° S 04:50:34 10° SSE visible
18 Dec 3.5 04:37:58 10° SSW 04:38:52 11° S 04:39:46 10° S visible
19 Dec 3.5 04:27:30 10° SSW 04:28:07 10° S 04:28:44 10° S visible
